Location: Newark
(45.4426°N, 12.3253°E)
Time: 17:21:32
(UTC+00:00)

N. Korean satellite - Visible Passes

Search period start: 22 October 2019 00:00
Search period end: 01 November 2019 00:00
Orbit: 455 x 508 km, 97.2° (Epoch: 21 October)

Date Brightness Start Highest point End Pass type
(mag) Time Alt. Az. Time Alt. Az. Time Alt. Az.
22 Oct 10.4 03:59:58 10° ENE 04:01:21 12° E 04:02:42 10° ESE visible
23 Oct 6.9 05:06:07 10° NNE 05:09:45 76° E 05:13:26 10° S visible
23 Oct 10.0 17:18:39 10° SW 17:20:37 14° W 17:22:35 10° WNW visible
24 Oct 8.5 04:41:01 10° NNE 04:44:24 36° E 04:47:49 10° SSE visible
24 Oct 8.9 16:52:06 10° SSW 16:55:07 28° W 16:58:10 10° NW visible
25 Oct 9.8 04:16:18 10° NE 04:18:57 19° E 04:21:36 10° SE visible
27 Oct 7.3 04:58:15 10° NNE 05:01:54 60° E 05:05:33 10° S visible
27 Oct 9.8 17:10:14 10° SW 17:12:38 18° W 17:15:06 10° NW visible
28 Oct 8.9 04:33:14 10° NNE 04:36:30 29° E 04:39:46 10° SSE visible
28 Oct 8.4 16:43:58 10° SSW 16:47:10 35° W 16:50:26 10° NNW visible
29 Oct 10.0 04:08:44 10° NE 04:11:00 16° E 04:13:18 10° SE visible
30 Oct 6.6 05:15:38 10° N 05:19:20 81° WNW 05:23:02 10° SSW visible
30 Oct 10.3 17:29:05 10° WSW 17:30:12 11° W 17:31:19 10° WNW visible
31 Oct 7.8 04:50:23 10° NNE 04:53:59 48° E 04:57:35 10° S visible
31 Oct 9.4 17:01:53 10° SSW 17:04:39 22° W 17:07:28 10° NW visible
